This is the latest recevied weather packets stored in our database for station/object KB4RFE. If no packets are shown the sender has not sent any weather packets the latest 10 day(s).
| Time | Temp. | Humidity | Pressure | Rain* | Wind** | Luminosity | Snow |
|---|---|---|---|---|---|---|---|
| 1777748426 | 16.11° C | 97% | 1012.3 hPa | 1.27 mm | - | 158 W/m² | - |
| 1777748121 | 16.11° C | 97% | 1012.1 hPa | 1.27 mm | - | 148 W/m² | - |
| 1777747818 | 16.11° C | 97% | 1012.2 hPa | 1.27 mm | - | 198 W/m² | - |
| 1777747514 | 15.56° C | 97% | 1012.2 hPa | 0.51 mm | - | 189 W/m² | - |
| 1777747210 | 15.56° C | 97% | 1012.2 hPa | 0.51 mm | - | 200 W/m² | - |
| 1777746907 | 15.56° C | 97% | 1012.1 hPa | 1.27 mm | - | 157 W/m² | - |
| 1777746601 | 15.56° C | 97% | 1012.2 hPa | 0.51 mm | - | 163 W/m² | - |
| 1777746297 | 15.56° C | 97% | 1012.3 hPa | 0 mm | - | 122 W/m² | - |
| 1777745994 | 15.56° C | 97% | 1012.4 hPa | 0.51 mm | - | 131 W/m² | - |
| 1777745692 | 15.56° C | 97% | 1012.2 hPa | 0.51 mm | - | 169 W/m² | - |
| 1777745390 | 15.56° C | 97% | 1012.4 hPa | 0 mm | - | 44 W/m² | - |
| 1777745087 | 15.56° C | 97% | 1012.4 hPa | 0 mm | - | 161 W/m² | - |
| 1777744783 | 15.56° C | 97% | 1012.2 hPa | 0.51 mm | - | 243 W/m² | - |
| 1777744478 | 15.56° C | 97% | 1012.6 hPa | 1.27 mm | - | 296 W/m² | - |
| 1777744175 | 15° C | 97% | 1012.8 hPa | 0.51 mm | - | 205 W/m² | - |
| 1777743872 | 15° C | 97% | 1012.9 hPa | 0 mm | - | 184 W/m² | - |
| 1777743568 | 15° C | 97% | 1012.8 hPa | 1.27 mm | - | 173 W/m² | - |
| 1777743264 | 15° C | 97% | 1013.1 hPa | 1.78 mm | - | 107 W/m² | - |
| 1777742964 | 15° C | 97% | 1013.4 hPa | 3.56 mm | - | 83 W/m² | - |
| 1777742660 | 15° C | 97% | 1013.2 hPa | 3.05 mm | - | 168 W/m² | - |
| 1777742356 | 15° C | 96% | 1013.3 hPa | 1.78 mm | - | 104 W/m² | - |
| 1777742052 | 15° C | 96% | 1013.5 hPa | 1.78 mm | - | 88 W/m² | - |
| 1777741750 | 15° C | 96% | 1013.2 hPa | 1.78 mm | - | 102 W/m² | - |
| 1777741446 | 15° C | 96% | 1012.9 hPa | 1.27 mm | - | 110 W/m² | - |
| 1777741142 | 15° C | 96% | 1012.4 hPa | 0.51 mm | - | 110 W/m² | - |
* Rain latest hour (hover to see other rain measurements)
** Current wind speed in m/s (hover to see current wind gust speed)